This is the latest recevied weather packets stored in our database for station/object W1LBM. If no packets are shown the sender has not sent any weather packets the latest 10 day(s).
| Time | Temp. | Humidity | Pressure | Rain* | Wind** | Luminosity | Snow |
|---|---|---|---|---|---|---|---|
| 1777996611 | 22.22° C | 57% | 1013.7 hPa | 0 mm | - | 688 W/m² | - |
| 1777996308 | 22.22° C | 58% | 1013.7 hPa | 0 mm | - | 686 W/m² | - |
| 1777996004 | 22.22° C | 58% | 1013.8 hPa | 0 mm | - | 699 W/m² | - |
| 1777995700 | 22.78° C | 57% | 1013.7 hPa | 0 mm | - | 731 W/m² | - |
| 1777995397 | 22.78° C | 56% | 1013.8 hPa | 0 mm | - | 679 W/m² | - |
| 1777995094 | 21.67° C | 57% | 1013.7 hPa | 0 mm | - | 687 W/m² | - |
| 1777994791 | 21.67° C | 58% | 1013.6 hPa | 0 mm | - | 492 W/m² | - |
| 1777994487 | 22.22° C | 60% | 1013.7 hPa | 0 mm | - | 509 W/m² | - |
| 1777994182 | 22.22° C | 57% | 1013.7 hPa | 0 mm | - | 365 W/m² | - |
| 1777993880 | 21.67° C | 57% | 1013.6 hPa | 0 mm | - | 368 W/m² | - |
| 1777993576 | 21.67° C | 56% | 1013.6 hPa | 0 mm | - | 343 W/m² | - |
| 1777993273 | 21.11° C | 58% | 1013.6 hPa | 0 mm | - | 370 W/m² | - |
| 1777992968 | 20.56° C | 60% | 1013.6 hPa | 0 mm | - | 287 W/m² | - |
| 1777992667 | 20.56° C | 59% | 1013.6 hPa | 0 mm | - | 278 W/m² | - |
| 1777992365 | 20° C | 61% | 1013.7 hPa | 0 mm | - | 278 W/m² | - |
| 1777992062 | 20.56° C | 60% | 1013.7 hPa | 0 mm | - | 193 W/m² | - |
| 1777991759 | 20.56° C | 61% | 1013.9 hPa | 0 mm | - | 329 W/m² | - |
| 1777991456 | 20° C | 60% | 1013.9 hPa | 0 mm | - | 205 W/m² | - |
| 1777991153 | 20° C | 61% | 1013.9 hPa | 0 mm | - | 160 W/m² | - |
| 1777990850 | 20° C | 62% | 1013.8 hPa | 0 mm | - | 191 W/m² | - |
| 1777990548 | 20.56° C | 60% | 1013.9 hPa | 0 mm | - | 213 W/m² | - |
| 1777989941 | 20° C | 60% | 1013.8 hPa | 0 mm | - | 341 W/m² | - |
| 1777989638 | 20° C | 61% | 1013.8 hPa | 0 mm | - | 168 W/m² | - |
| 1777989334 | 19.44° C | 62% | 1013.8 hPa | 0 mm | - | 267 W/m² | - |
| 1777989031 | 19.44° C | 63% | 1014.1 hPa | 0 mm | - | 164 W/m² | - |
* Rain latest hour (hover to see other rain measurements)
** Current wind speed in m/s (hover to see current wind gust speed)